Date String (YYYY-MM-DD hh:mm:ss) UTC,Instrument flags,Ambient pressure (hPa),Sample flow (lpm),Bypass flow (lpm),Sample temperature (°C),Ambient temperature (°C),ASC tube jacket temperature (°C),LED temperature (°C),Box temperature (°C),Sample RH (%),Span deviation,Mass concentration (μg/m³),Mass concentration (μg/m³),Mass concentration (μg/m³)
DateTimeUTC,F1_M11,P_M11,Q1_M11,Q2_M11,T1_M11,T2_M11,T3_M11,T4_M11,T5_M11,U1_M11,ZSPAN_M11,X2_M11,X0_M11,X1_M11
2022-02-09 13:00:00,,0827.8,5.02,0.00,22.6,21.9,00.0,31.6,24.4,07.4,0000.0,0002.92,0006.62,0001.81
2022-02-09 13:01:00,,0827.8,4.99,0.00,22.5,21.8,00.0,31.6,24.3,07.4,0000.0,0002.92,0006.39,0001.84
2022-02-09 13:02:00,,0827.9,5.00,0.00,22.5,21.8,00.0,31.6,24.2,07.6,0000.0,0002.90,0006.34,0001.87
2022-02-09 13:03:00,,0827.8,5.01,0.00,22.5,21.8,00.0,31.6,24.3,07.8,0000.0,0002.96,0006.33,0001.93
2022-02-09 13:04:00,,0827.9,4.99,0.00,22.5,21.8,00.0,31.6,24.2,07.7,0000.0,0003.08,0006.48,0002.01
2022-02-09 13:05:00,,0827.9,5.02,0.00,22.5,22.2,00.0,31.6,24.4,07.6,0000.0,0003.12,0006.65,0002.06
2022-02-09 13:06:00,,0828.0,5.01,0.00,22.7,23.0,00.0,31.6,24.6,07.6,0000.0,0003.12,0006.26,0002.05
2022-02-09 13:07:00,,0828.0,4.98,0.00,22.8,23.3,00.0,31.7,24.8,07.5,0000.0,0003.11,0006.51,0002.05
2022-02-09 13:08:00,,0828.0,5.01,0.00,22.9,23.2,00.0,31.7,24.9,07.5,0000.0,0003.11,0007.01,0002.06
2022-02-09 13:09:00,,0828.0,5.00,0.00,22.9,23.0,00.0,31.7,24.8,07.6,0000.0,0003.13,0007.70,0002.09
2022-02-09 13:10:00,,0828.0,5.00,0.00,22.9,22.9,00.0,31.7,24.8,07.6,0000.0,0003.16,0008.59,0002.10
2022-02-09 13:11:00,,0827.9,5.01,0.00,22.9,22.7,00.0,31.7,24.8,07.6,0000.0,0003.15,0008.68,0002.09
2022-02-09 13:12:00,,0827.9,5.01,0.00,22.9,22.7,00.0,31.7,24.8,07.8,0000.0,0003.17,0008.91,0002.09
2022-02-09 13:13:00,,0827.8,4.99,0.00,22.9,22.6,00.0,31.7,24.8,07.9,0000.0,0003.16,0008.78,0002.07
2022-02-09 13:14:00,,0827.8,4.99,0.00,22.9,22.5,00.0,31.7,24.8,07.8,0000.0,0003.15,0008.84,0002.05
2022-02-09 13:15:00,,0827.8,5.00,0.00,22.9,22.5,00.0,31.8,24.8,07.7,0000.0,0003.12,0009.07,0002.03
2022-02-09 13:16:00,,0827.8,4.99,0.00,22.9,22.4,00.0,31.8,24.7,07.8,0000.0,0003.12,0009.37,0002.04
2022-02-09 13:17:00,,0827.8,5.01,0.00,22.9,22.4,00.0,31.8,24.7,07.8,0000.0,0003.13,0009.54,0002.07
2022-02-09 13:18:00,,0827.7,5.01,0.00,22.9,22.3,00.0,31.8,24.7,07.8,0000.0,0003.11,0009.81,0002.09
2022-02-09 13:19:00,,0827.8,4.98,0.00,22.9,22.3,00.0,31.8,24.6,07.9,0000.0,0003.12,0009.69,0002.13
2022-02-09 13:20:00,,0827.7,5.01,0.00,22.8,22.2,00.0,31.8,24.6,07.9,0000.0,0003.15,0009.26,0002.16
2022-02-09 13:21:00,,0827.8,5.00,0.00,22.8,22.2,00.0,31.8,24.6,07.9,0000.0,0003.13,0008.41,0002.19
2022-02-09 13:22:00,,0827.8,5.00,0.00,22.8,22.2,00.0,31.8,24.6,08.0,0000.0,0003.08,0008.11,0002.22
2022-02-09 13:23:00,,0827.7,4.99,0.00,22.8,22.2,00.0,31.8,24.6,08.0,0000.0,0003.06,0007.83,0002.24
2022-02-09 13:24:00,,0827.7,5.00,0.00,22.8,22.1,00.0,31.8,24.5,08.0,0000.0,0003.12,0008.03,0002.28
2022-02-09 13:25:00,,0827.7,5.00,0.00,22.8,22.1,00.0,31.8,24.5,08.0,0000.0,0003.13,0007.94,0002.31
2022-02-09 13:26:00,,0827.7,5.01,0.00,22.7,22.1,00.0,31.7,24.5,08.0,0000.0,0003.14,0007.70,0002.33
2022-02-09 13:27:00,,0827.8,5.00,0.00,22.7,22.1,00.0,31.7,24.5,08.0,0000.0,0003.15,0007.38,0002.34
2022-02-09 13:28:00,,0827.7,4.99,0.00,22.7,22.0,00.0,31.7,24.5,08.1,0000.0,0003.18,0007.13,0002.37
2022-02-09 13:29:00,,0827.7,5.01,0.00,22.7,22.0,00.0,31.7,24.5,08.1,0000.0,0003.20,0006.74,0002.38
2022-02-09 13:30:00,,0827.7,5.01,0.00,22.7,22.0,00.0,31.7,24.5,08.1,0000.0,0003.24,0006.77,0002.41
2022-02-09 13:31:00,,0827.7,4.99,0.00,22.7,22.0,00.0,31.7,24.5,08.1,0000.0,0003.26,0006.82,0002.42
2022-02-09 13:32:00,,0827.7,5.00,0.00,22.7,22.0,00.0,31.7,24.5,08.1,0000.0,0003.29,0006.91,0002.43
2022-02-09 13:33:00,,0827.8,5.00,0.00,22.7,22.0,00.0,31.7,24.5,08.1,0000.0,0003.31,0007.12,0002.43
2022-02-09 13:34:00,,0827.8,4.99,0.00,22.7,22.0,00.0,31.7,24.5,08.1,0000.0,0003.30,0007.12,0002.43
2022-02-09 13:35:00,,0827.7,5.00,0.00,22.7,22.0,00.0,31.7,24.5,08.1,0000.0,0003.26,0006.62,0002.43
2022-02-09 13:36:00,,0827.7,5.00,0.00,22.7,22.0,00.0,31.7,24.5,08.1,0000.0,0003.25,0006.53,0002.44
2022-02-09 13:37:00,,0827.7,5.00,0.00,22.7,22.0,00.0,31.7,24.5,08.1,0000.0,0003.24,0006.47,0002.45
2022-02-09 13:38:00,,0827.7,4.99,0.00,22.7,22.0,00.0,31.7,24.5,08.1,0000.0,0003.23,0006.34,0002.45
2022-02-09 13:39:00,,0827.7,5.01,0.00,22.7,22.0,00.0,31.7,24.4,08.2,0000.0,0003.23,0006.11,0002.45
2022-02-09 13:40:00,,0827.7,4.99,0.00,22.6,21.9,00.0,31.6,24.4,08.2,0000.0,0003.22,0005.76,0002.44
2022-02-09 13:41:00,,0827.7,5.00,0.00,22.6,21.9,00.0,31.6,24.3,08.3,0000.0,0003.19,0005.22,0002.43
2022-02-09 13:42:00,,0827.7,5.01,0.00,22.6,21.9,00.0,31.6,24.4,08.5,0000.0,0003.16,0005.07,0002.43
2022-02-09 13:43:00,,0827.9,4.99,0.00,22.6,21.9,00.0,31.6,24.3,08.3,0000.0,0003.15,0005.02,0002.44
2022-02-09 13:44:00,,0827.8,5.01,0.00,22.6,21.9,00.0,31.6,24.4,08.3,0000.0,0003.15,0004.90,0002.46
2022-02-09 13:45:00,,0827.7,5.00,0.00,22.6,21.9,00.0,31.6,24.4,08.4,0000.0,0003.19,0005.06,0002.48
2022-02-09 13:46:00,,0827.7,4.99,0.00,22.6,21.9,00.0,31.6,24.4,08.4,0000.0,0003.23,0005.22,0002.47
2022-02-09 13:47:00,,0827.6,5.00,0.00,22.6,21.9,00.0,31.6,24.4,08.2,0000.0,0003.22,0005.22,0002.48
2022-02-09 13:48:00,,0827.7,4.99,0.00,22.6,21.9,00.0,31.6,24.4,07.7,0000.0,0003.22,0005.29,0002.45
2022-02-09 13:49:00,,0827.7,5.00,0.00,22.6,21.9,00.0,31.6,24.4,08.2,0000.0,0003.20,0005.95,0002.41
2022-02-09 13:50:00,,0827.7,5.01,0.00,22.6,21.9,00.0,31.6,24.4,08.3,0000.0,0003.18,0006.02,0002.39
2022-02-09 13:51:00,,0827.7,5.00,0.00,22.6,21.9,00.0,31.6,24.4,07.6,0000.0,0003.15,0005.89,0002.34
2022-02-09 13:52:00,,0827.6,5.00,0.00,22.6,21.9,00.0,31.6,24.3,07.3,0000.0,0003.05,0005.77,0002.23
2022-02-09 13:53:00,,0827.6,5.00,0.00,22.6,21.8,00.0,31.6,24.3,07.2,0000.0,0002.86,0005.48,0002.10
2022-02-09 13:54:00,,0827.5,5.01,0.00,22.6,21.8,00.0,31.6,24.4,08.0,0000.0,0002.76,0005.22,0002.04
2022-02-09 13:55:00,,0827.6,5.01,0.00,22.6,21.9,00.0,31.5,24.4,07.8,0000.0,0002.70,0005.19,0001.97
2022-02-09 13:56:00,,0827.7,4.99,0.00,22.6,21.8,00.0,31.5,24.3,08.0,0000.0,0002.62,0005.21,0001.91
2022-02-09 13:57:00,,0827.7,5.00,0.00,22.6,21.8,00.0,31.5,24.3,08.4,0000.0,0002.60,0005.90,0001.90
2022-02-09 13:58:00,,0827.6,5.00,0.00,22.6,21.8,00.0,31.5,24.3,08.2,0000.0,0002.64,0007.24,0001.89
2022-02-09 13:59:00,,0827.6,4.99,0.00,22.6,21.8,00.0,31.5,24.3,08.4,0000.0,0002.68,0007.44,0001.90
